Location: Gro�wechsungen
(51.4926°N, 10.6901°E)
Time: 13:44:58
(UTC+00:00)

Cosmos 2082 Rocket - Pass Details

Date: 19 January 2021
Orbit: 832 x 854 km, 71.0° (Epoch: 04 March)

Event Time Altitude Azimuth Distance (km) Brightness Sun altitude
Rises 19:46:30 0° 329° (NNW) 3,438 5.9 -37.0°
Reaches altitude 10° 19:48:58 10° 329° (NNW) 2,498 5.1 -37.3°
Enters shadow 19:51:01 23° 330° (NNW) 1,742 4.1 -37.7°
